When you browse on this site, cookies collect data to enhance your experience and personalize the content and advertising you see.
Visit our Privacy Policy to learn more. By continuing to use the site, you agree to this use of cookies and data.
  • In Schweiz
  • Länderverzeichnis
  • Für 7 Tage
  • Wassertemperatur
  • Satellitenkarten
  • Wetterkarte
  • Widgets
  • user-avatar
    Anmelden

    Stündliche Wetter Nesterovo

    Heute, 25 Juni, Dienstag

    Zeit Temperatur Niederschläge Wind Luftdruck Luftfeuchtigkeit
    00:00 +14°C° 0 mm 3 m/S 747 mmHg 75%
    01:00 +13°C° 0 mm 3 m/S 747 mmHg 77%
    02:00 +14°C° 0 mm 2 m/S 748 mmHg 81%
    03:00 +14°C° 0 mm 2 m/S 748 mmHg 80%
    04:00 +14°C° 0 mm 2 m/S 748 mmHg 80%
    05:00 +15°C° 0 mm 2 m/S 748 mmHg 80%
    06:00 +16°C° 0 mm 2 m/S 749 mmHg 75%
    07:00 +17°C° 0 mm 2 m/S 749 mmHg 70%
    08:00 +19°C° 0 mm 3 m/S 749 mmHg 65%
    09:00 +20°C° 0 mm 3 m/S 749 mmHg 62%
    10:00 +21°C° 0 mm 3 m/S 749 mmHg 59%
    11:00 +22°C° 0 mm 3 m/S 749 mmHg 55%
    12:00 +22°C° 0 mm 3 m/S 749 mmHg 54%
    13:00 +22°C° 0 mm 3 m/S 750 mmHg 52%
    14:00 +22°C° 0 mm 3 m/S 750 mmHg 51%
    15:00 +23°C° 0 mm 2 m/S 749 mmHg 55%
    16:00 +23°C° 0 mm 2 m/S 749 mmHg 60%
    17:00 +21°C° 0 mm 2 m/S 749 mmHg 64%
    18:00 +20°C° 0 mm 2 m/S 749 mmHg 67%
    19:00 +19°C° 0 mm 1 m/S 749 mmHg 70%
    20:00 +16°C° 0 mm 1 m/S 749 mmHg 73%
    21:00 +15°C° 0 mm 1 m/S 749 mmHg 75%
    22:00 +14°C° 0 mm 1 m/S 749 mmHg 78%
    23:00 +13°C° 0 mm 1 m/S 749 mmHg 81%

    Morgen, 26 Juni, Mittwoch

    Zeit Temperatur Niederschläge Wind Luftdruck Luftfeuchtigkeit
    00:00 +13°C° 0 mm 1 m/S 749 mmHg 82%
    01:00 +12°C° 0 mm 0 m/S 749 mmHg 83%
    02:00 +11°C° 0 mm 0 m/S 749 mmHg 84%
    03:00 +13°C° 0 mm 1 m/S 749 mmHg 83%
    04:00 +14°C° 0 mm 1 m/S 749 mmHg 83%
    05:00 +15°C° 0 mm 1 m/S 748 mmHg 82%
    06:00 +16°C° 0 mm 1 m/S 748 mmHg 76%
    07:00 +19°C° 0 mm 1 m/S 748 mmHg 70%
    08:00 +20°C° 0 mm 2 m/S 748 mmHg 64%
    09:00 +20°C° 0 mm 2 m/S 748 mmHg 61%
    10:00 +21°C° 0 mm 2 m/S 748 mmHg 58%
    11:00 +23°C° 0 mm 2 m/S 747 mmHg 55%
    12:00 +22°C° 0 mm 3 m/S 747 mmHg 55%
    13:00 +24°C° 0 mm 3 m/S 747 mmHg 54%
    14:00 +24°C° 0 mm 3 m/S 746 mmHg 54%
    15:00 +24°C° 0 mm 3 m/S 746 mmHg 58%
    16:00 +24°C° 0 mm 2 m/S 745 mmHg 62%
    17:00 +23°C° 0 mm 2 m/S 744 mmHg 65%
    18:00 +22°C° 0 mm 1 m/S 744 mmHg 68%
    19:00 +21°C° 0 mm 1 m/S 744 mmHg 70%
    20:00 +17°C° 0 mm 0 m/S 743 mmHg 72%
    21:00 +19°C° 0 mm 1 m/S 742 mmHg 74%
    22:00 +17°C° 0 mm 2 m/S 742 mmHg 76%
    23:00 +17°C° 0 mm 2 m/S 741 mmHg 78%

    übermorgen, 27 Juni, Donnerstag

    Zeit Temperatur Niederschläge Wind Luftdruck Luftfeuchtigkeit
    00:00 +16°C° 0.1 mm 3 m/S 740 mmHg 81%
    01:00 +16°C° 0.1 mm 3 m/S 739 mmHg 85%
    02:00 +15°C° 0.1 mm 4 m/S 739 mmHg 89%
    03:00 +15°C° 3.9 mm 4 m/S 738 mmHg 92%
    04:00 +15°C° 3.9 mm 4 m/S 737 mmHg 94%
    05:00 +14°C° 3.9 mm 5 m/S 736 mmHg 97%
    06:00 +16°C° 1.5 mm 5 m/S 735 mmHg 95%
    07:00 +17°C° 1.5 mm 5 m/S 734 mmHg 94%
    08:00 +19°C° 1.5 mm 6 m/S 734 mmHg 92%
    09:00 +19°C° 0.4 mm 5 m/S 733 mmHg 93%
    10:00 +19°C° 0.4 mm 5 m/S 732 mmHg 94%
    11:00 +19°C° 0.4 mm 4 m/S 731 mmHg 95%
    12:00 +20°C° 0.9 mm 5 m/S 731 mmHg 95%
    13:00 +20°C° 0.9 mm 6 m/S 730 mmHg 94%
    14:00 +20°C° 0.9 mm 6 m/S 730 mmHg 94%
    15:00 +20°C° 0.6 mm 6 m/S 729 mmHg 93%
    16:00 +21°C° 0.6 mm 6 m/S 728 mmHg 92%
    17:00 +21°C° 0.6 mm 6 m/S 727 mmHg 91%
    18:00 +20°C° 2.2 mm 5 m/S 727 mmHg 91%
    19:00 +20°C° 2.2 mm 4 m/S 726 mmHg 91%
    20:00 +19°C° 2.2 mm 3 m/S 726 mmHg 91%
    21:00 +19°C° 0.4 mm 4 m/S 725 mmHg 93%
    22:00 +17°C° 0.4 mm 5 m/S 725 mmHg 95%
    23:00 +16°C° 0.4 mm 5 m/S 724 mmHg 97%

    28 Juni, Freitag

    Zeit Temperatur Niederschläge Wind Luftdruck Luftfeuchtigkeit
    00:00 +16°C° 0.1 mm 6 m/S 724 mmHg 96%
    01:00 +15°C° 0.1 mm 6 m/S 724 mmHg 95%
    02:00 +15°C° 0.1 mm 6 m/S 724 mmHg 95%
    03:00 +14°C° 0 mm 6 m/S 724 mmHg 93%
    04:00 +14°C° 0 mm 6 m/S 723 mmHg 92%
    05:00 +13°C° 0 mm 5 m/S 723 mmHg 91%
    06:00 +13°C° 0 mm 5 m/S 723 mmHg 90%
    07:00 +13°C° 0 mm 6 m/S 723 mmHg 89%
    08:00 +13°C° 0 mm 6 m/S 723 mmHg 88%
    09:00 +14°C° 0.1 mm 6 m/S 722 mmHg 89%
    10:00 +14°C° 0.1 mm 6 m/S 722 mmHg 89%
    11:00 +14°C° 0.1 mm 6 m/S 722 mmHg 89%
    12:00 +14°C° 0.3 mm 6 m/S 722 mmHg 91%
    13:00 +13°C° 0.3 mm 5 m/S 722 mmHg 92%
    14:00 +13°C° 0.3 mm 5 m/S 722 mmHg 93%
    15:00 +13°C° 0.1 mm 5 m/S 722 mmHg 94%
    16:00 +13°C° 0.1 mm 5 m/S 722 mmHg 94%
    17:00 +12°C° 0.1 mm 5 m/S 722 mmHg 94%
    18:00 +12°C° 0.4 mm 5 m/S 723 mmHg 95%
    19:00 +10°C° 0.4 mm 5 m/S 723 mmHg 95%
    20:00 +10°C° 0.4 mm 6 m/S 723 mmHg 96%
    21:00 +10°C° 0.5 mm 6 m/S 723 mmHg 95%
    22:00 +10°C° 0.5 mm 6 m/S 723 mmHg 95%
    23:00 +10°C° 0.5 mm 6 m/S 723 mmHg 95%

    29 Juni, Samstag

    Zeit Temperatur Niederschläge Wind Luftdruck Luftfeuchtigkeit
    00:00 +10°C° 0.4 mm 6 m/S 724 mmHg 95%
    01:00 +10°C° 0.4 mm 6 m/S 724 mmHg 95%
    02:00 +10°C° 0.4 mm 6 m/S 724 mmHg 95%
    03:00 +10°C° 0.7 mm 6 m/S 724 mmHg 95%
    04:00 +9°C° 0.7 mm 7 m/S 725 mmHg 95%
    05:00 +9°C° 0.7 mm 7 m/S 725 mmHg 95%
    06:00 +9°C° 0.3 mm 7 m/S 726 mmHg 95%
    07:00 +9°C° 0.3 mm 7 m/S 726 mmHg 94%
    08:00 +9°C° 0.3 mm 7 m/S 727 mmHg 94%
    09:00 +9°C° 0.1 mm 7 m/S 727 mmHg 93%
    10:00 +9°C° 0.1 mm 7 m/S 728 mmHg 92%
    11:00 +9°C° 0.1 mm 7 m/S 729 mmHg 91%
    12:00 +9°C° 0.1 mm 6 m/S 729 mmHg 88%
    13:00 +10°C° 0.1 mm 6 m/S 730 mmHg 84%
    14:00 +10°C° 0.1 mm 5 m/S 730 mmHg 81%
    15:00 +10°C° 0 mm 5 m/S 731 mmHg 78%
    16:00 +12°C° 0 mm 5 m/S 731 mmHg 76%
    17:00 +12°C° 0 mm 4 m/S 731 mmHg 73%
    18:00 +12°C° 0 mm 4 m/S 732 mmHg 74%
    19:00 +11°C° 0 mm 4 m/S 732 mmHg 75%
    20:00 +10°C° 0 mm 3 m/S 732 mmHg 75%
    21:00 +10°C° 0 mm 3 m/S 733 mmHg 76%
    22:00 +10°C° 0 mm 3 m/S 733 mmHg 76%
    23:00 +10°C° 0 mm 2 m/S 733 mmHg 76%

    30 Juni, Sonntag

    Zeit Temperatur Niederschläge Wind Luftdruck Luftfeuchtigkeit
    00:00 +9°C° 0 mm 2 m/S 733 mmHg 77%
    01:00 +9°C° 0 mm 2 m/S 733 mmHg 79%
    02:00 +8°C° 0 mm 2 m/S 734 mmHg 80%
    03:00 +8°C° 0 mm 3 m/S 734 mmHg 80%
    04:00 +8°C° 0 mm 3 m/S 734 mmHg 80%
    05:00 +8°C° 0 mm 3 m/S 734 mmHg 80%
    06:00 +10°C° 0 mm 3 m/S 734 mmHg 75%
    07:00 +12°C° 0 mm 3 m/S 734 mmHg 71%
    08:00 +13°C° 0 mm 4 m/S 735 mmHg 66%
    09:00 +14°C° 0 mm 4 m/S 735 mmHg 62%
    10:00 +17°C° 0 mm 4 m/S 735 mmHg 57%
    11:00 +18°C° 0 mm 4 m/S 735 mmHg 52%
    12:00 +18°C° 0 mm 4 m/S 735 mmHg 52%
    13:00 +18°C° 0 mm 3 m/S 735 mmHg 52%
    14:00 +19°C° 0 mm 3 m/S 735 mmHg 51%
    15:00 +19°C° 0 mm 3 m/S 735 mmHg 53%
    16:00 +19°C° 0 mm 2 m/S 735 mmHg 55%
    17:00 +19°C° 0 mm 2 m/S 735 mmHg 57%
    18:00 +17°C° 0 mm 2 m/S 735 mmHg 67%
    19:00 +15°C° 0 mm 2 m/S 736 mmHg 77%
    20:00 +13°C° 0 mm 2 m/S 736 mmHg 87%
    21:00 +12°C° 0 mm 2 m/S 736 mmHg 89%
    22:00 +12°C° 0 mm 2 m/S 736 mmHg 91%
    23:00 +10°C° 0 mm 2 m/S 736 mmHg 93%
    Mehr zeigen